Simultaneous Nadir Overpasses (SNOs) Predictions

Prediction of SNOs between AQUA and NOAA-19 Satellite Orbit:

Table of predicted SNOs for the next 14.0 days since TLE Epoch: 2/24/2024
Index Date (AQUA) Time (AQUA) Lat,Lon (AQUA) SZA (AQUA ) Date (NOAA-19) Time (NOAA-19) Lat,Lon (NOAA-19) SZA (NOAA-19 ) Distance(km) Time Diff (sec)
1 02/25/2024 01:23:41 -75.87, -25.51 94.75 02/25/2024 01:22:58 -75.86, -25.54 94.75 1.87 43
2 02/25/2024 02:13:06 75.93, 141.96 85.31 02/25/2024 02:13:57 75.95, 142.03 85.32 2.79 51
3 02/27/2024 06:04:05 -75.91, -95.69 95.53 02/27/2024 06:04:05 -75.89, -95.65 95.55 2.33 0
4 02/29/2024 09:55:04 75.85, 26.77 83.60 02/29/2024 09:54:17 75.85, 26.72 83.61 1.32 47
5 02/29/2024 10:44:27 -75.90,-165.71 96.37 02/29/2024 10:45:12 -75.91,-165.79 96.36 3.02 45
6 03/02/2024 14:35:26 75.89, -43.40 82.80 03/02/2024 14:35:24 75.89, -43.38 82.79 0.87 2
7 03/04/2024 18:26:22 -75.85, 79.03 98.09 03/04/2024 18:25:30 -75.84, 79.00 98.09 1.22 52
8 03/04/2024 19:15:47 75.93,-113.56 81.99 03/04/2024 19:16:31 75.91,-113.51 81.97 2.16 44
9 03/06/2024 23:06:42 -75.88, 8.90 98.92 03/06/2024 23:06:36 -75.89, 8.95 98.90 2.08 6
10 03/09/2024 02:57:37 75.82, 131.35 80.19 03/09/2024 02:56:49 75.83, 131.26 80.20 2.85 48



Historial Predications of SNOs between AQUA and NOAA-19
